Location: City of Moscow
(46.7306°N, 116.9989°W)
Time: 00:35:45
(UTC+00:00)

Tiangong - Pass Details

Date: 15 February 2026
Orbit: 381 x 391 km, 41.5° (Epoch: 7 March)

Event Time Altitude Azimuth Distance (km) Brightness Sun altitude
Rises 03:07:35 0° 255° (WSW) 2,251 3.1 -20.4°
Reaches altitude 10° 03:09:47 10° 245° (WSW) 1,397 1.6 -20.8°
Enters shadow 03:12:02 28° 204° (SSW) 742 -0.6 -21.2°
